Weather History for St. Joseph, MO

Change the Weather History Date:

Friday, May 24, 2013

  Actual Average Record
Temperature  
Mean Temperature 59 °F 67 °F  
Max Temperature 74 °F 78 °F 97 °F (1967)
Min Temperature 43 °F 56 °F 38 °F (1924)
Degree Days  
Heating Degree Days 6 2  
Month to date heating degree days 166 103  
Since 1 July heating degree days 5599 5441  
Cooling Degree Days 0 4  
Month to date cooling degree days 55 56  
Year to date cooling degree days 71 77  
Growing Degree Days 8 (Base 50)    
Moisture  
Dew Point 45 °F    
Average Humidity 64    
Maximum Humidity 93    
Minimum Humidity 35    
Precipitation  
Precipitation 0.00 in 0.18 in 1.20 in (2011)
Month to date precipitation 1.89 4.27  
Year to date precipitation 8.40 11.80  
Sea Level Pressure  
Sea Level Pressure 30.24 in    
Wind  
Wind Speed 10 mph (SE)    
Max Wind Speed 23 mph    
Max Gust Speed 28 mph    
Visibility 9 miles    
Events      
T = Trace of Precipitation, MM = Missing Value Source: NWS Daily Summary

Daily Weather History Graph

Daily Weather History Graph

Search for Another Location

Airport:

Trip Planner

Search our weather history database for the weather conditions in past years. The results will help you decide how hot, cold, wet, or windy it might be!

Date:

Astronomy

May. 24, 2013 Rise Set
Actual Time 5:57 AM CDT 8:35 PM CDT
Civil Twilight 5:26 AM CDT 9:07 PM CDT
Nautical Twilight 4:47 AM CDT 9:46 PM CDT
Astronomical Twilight 4:03 AM CDT 10:30 PM CDT
Moon 8:18 PM CDT (5/24) 5:30 AM CDT (5/24)
Length of Visible Light 15h 40m
Length of Day
14h 38m
Full, 100% of the Moon is Illuminated
May 24
Full
May 24
Full
May 31
Last Quarter
Jun 8
New
Jun 16
First Quarter

Hourly Weather History & Observations

Time (CDT) Temp. Windchill Dew Point Humidity Pressure Visibility Wind Dir Wind Speed Gust Speed Precip Events Conditions
12:53 AM 50.0 °F - 45.0 °F 83% 30.25 in 10.0 mi Calm Calm - N/A   Clear
1:53 AM 46.9 °F - 43.0 °F 86% 30.25 in 10.0 mi Calm Calm - N/A   Clear
2:53 AM 46.9 °F - 44.1 °F 90% 30.26 in 10.0 mi NNE 3.5 mph - N/A   Clear
3:53 AM 46.0 °F 44.8 °F 44.1 °F 93% 30.26 in 10.0 mi West 3.5 mph - N/A   Clear
4:21 AM 44.6 °F - 42.8 °F 93% 30.28 in 1.5 mi Calm Calm - N/A   Clear
4:31 AM 46.4 °F - 44.6 °F 93% 30.28 in 3.0 mi Calm Calm - N/A   Clear
4:53 AM 46.0 °F 43.1 °F 43.0 °F 89% 30.27 in 10.0 mi ENE 5.8 mph - N/A   Clear
5:53 AM 44.1 °F - 42.1 °F 93% 30.29 in 8.0 mi Calm Calm - N/A   Clear
6:53 AM 50.0 °F - 46.9 °F 89% 30.31 in 10.0 mi Calm Calm - N/A   Clear
7:53 AM 55.0 °F - 48.9 °F 80% 30.32 in 10.0 mi SE 6.9 mph - N/A   Scattered Clouds
8:53 AM 62.1 °F - 50.0 °F 65% 30.31 in 10.0 mi SE 12.7 mph - N/A   Clear
9:53 AM 64.9 °F - 50.0 °F 58% 30.31 in 10.0 mi SSE 15.0 mph 21.9 mph N/A   Partly Cloudy
10:53 AM 66.0 °F - 48.0 °F 52% 30.31 in 10.0 mi SE 15.0 mph 24.2 mph N/A   Partly Cloudy
11:53 AM 68.0 °F - 48.0 °F 49% 30.30 in 10.0 mi SE 18.4 mph 25.3 mph N/A   Partly Cloudy
12:53 PM 69.1 °F - 46.9 °F 45% 30.27 in 10.0 mi SSE 16.1 mph - N/A   Clear
1:53 PM 71.1 °F - 45.0 °F 39% 30.26 in 10.0 mi SE 15.0 mph 23.0 mph N/A   Clear
2:53 PM 73.0 °F - 45.0 °F 37% 30.24 in 10.0 mi SSE 10.4 mph 21.9 mph N/A   Clear
3:53 PM 73.0 °F - 46.0 °F 38% 30.22 in 10.0 mi SE 13.8 mph - N/A   Clear
4:53 PM 71.1 °F - 46.0 °F 41% 30.20 in 10.0 mi SE 12.7 mph - N/A   Overcast
5:53 PM 71.1 °F - 46.0 °F 41% 30.17 in 10.0 mi SE 15.0 mph 20.7 mph N/A   Overcast
6:53 PM 71.1 °F - 45.0 °F 39% 30.14 in 10.0 mi SE 12.7 mph - N/A   Clear
7:53 PM 69.1 °F - 45.0 °F 42% 30.13 in 10.0 mi SE 11.5 mph - N/A   Clear
8:53 PM 66.9 °F - 44.1 °F 44% 30.12 in 10.0 mi SE 13.8 mph - N/A   Clear
9:53 PM 64.9 °F - 44.1 °F 47% 30.14 in 10.0 mi SSE 10.4 mph - N/A   Clear
10:53 PM 63.0 °F - 45.0 °F 52% 30.15 in 10.0 mi SE 8.1 mph - N/A   Clear
11:53 PM 63.0 °F - 44.1 °F 50% 30.14 in 10.0 mi SSE 10.4 mph - N/A   Clear